Telluride, CO

10:04 PM MST on November 20, 2017 (GMT -0700)
Telluride Regional

Weather History for KTEX - November, 2012

Change the Weather History Date:

Sunday, November 25, 2012

  Actual Average Record
Temperature  
Mean Temperature 40 °F -  
Max Temperature 50 °F 35 °F 50 °F (2012)
Min Temperature 30 °F 19 °F -4 °F (2010)
Degree Days  
Heating Degree Days 25    
Moisture  
Dew Point 9 °F    
Average Humidity 33    
Maximum Humidity 47    
Minimum Humidity 14    
Precipitation  
Precipitation 0.00 in - - ()
Sea Level Pressure  
Sea Level Pressure 30.13 in    
Wind  
Wind Speed 6 mph (SSE)    
Max Wind Speed 15 mph    
Max Gust Speed 23 mph    
Visibility 10 miles    
Events      
Averages and records for this station are not official NWS values.
T = Trace of Precipitation, MM = Missing Value Source: NWS Daily Summary

Daily Weather History Graph

Daily Weather History Graph

Search for Another Location

Airport or City:

Trip Planner

Search our weather history database for the weather conditions in past years. The results will help you decide how hot, cold, wet, or windy it might be!

Date:

Astronomy

Nov. 25, 2012 Rise Set
Actual Time 7:03 AM MST 4:54 PM MST
Civil Twilight 6:34 AM MST 5:22 PM MST
Nautical Twilight 6:02 AM MST 5:55 PM MST
Astronomical Twilight 5:30 AM MST 6:26 PM MST
Moon 3:11 PM MST (11/25) 4:22 AM MST (11/25)
Length of Visible Light 10h 48m
Length of Day
9h 50m
Waxing Gibbous, 93% of the Moon is Illuminated
Nov 25
Waxing Gibbous
Nov 28
Full
Dec 6
Last Quarter
Dec 13
New
Dec 19
First Quarter

Hourly Weather History & Observations

Time (MST) Temp. Windchill Dew Point Humidity Pressure Visibility Wind Dir Wind Speed Gust Speed Precip Events Conditions
12:15 AM 32.0 °F 25.6 °F 10.4 °F 41% 30.24 in 10.0 mi ESE 6.9 mph - N/A   Clear
12:35 AM 32.0 °F 25.6 °F 10.4 °F 41% 30.23 in 10.0 mi ESE 6.9 mph - N/A   Clear
12:55 AM 32.0 °F 26.4 °F 8.6 °F 38% 30.22 in 10.0 mi East 5.8 mph - N/A   Clear
1:15 AM 32.0 °F 24.8 °F 8.6 °F 38% 30.22 in 10.0 mi SE 8.1 mph - N/A   Clear
1:35 AM 32.0 °F 25.6 °F 10.4 °F 41% 30.22 in 10.0 mi SE 6.9 mph - N/A   Clear
1:55 AM 30.2 °F 23.4 °F 8.6 °F 40% 30.21 in 10.0 mi SE 6.9 mph - N/A   Clear
2:15 AM 30.2 °F 21.9 °F 8.6 °F 40% 30.20 in 10.0 mi ESE 9.2 mph - N/A   Clear
2:35 AM 30.2 °F 22.6 °F 8.6 °F 40% 30.20 in 10.0 mi ESE 8.1 mph - N/A   Clear
2:55 AM 32.0 °F 26.4 °F 8.6 °F 38% 30.20 in 10.0 mi SE 5.8 mph - N/A   Clear
3:15 AM 30.2 °F 23.4 °F 8.6 °F 40% 30.19 in 10.0 mi SE 6.9 mph - N/A   Clear
3:35 AM 30.2 °F 23.4 °F 8.6 °F 40% 30.18 in 10.0 mi SE 6.9 mph - N/A   Clear
3:55 AM 30.2 °F 23.4 °F 8.6 °F 40% 30.18 in 10.0 mi ESE 6.9 mph - N/A   Clear
4:15 AM 30.2 °F 24.3 °F 8.6 °F 40% 30.18 in 10.0 mi ESE 5.8 mph - N/A   Clear
4:35 AM 32.0 °F 26.4 °F 8.6 °F 38% 30.16 in 10.0 mi SE 5.8 mph - N/A   Clear
4:55 AM 30.2 °F 22.6 °F 8.6 °F 40% 30.16 in 10.0 mi SE 8.1 mph - N/A   Clear
5:15 AM 30.2 °F 22.6 °F 8.6 °F 40% 30.16 in 10.0 mi East 8.1 mph - N/A   Clear
5:35 AM 30.2 °F 24.3 °F 8.6 °F 40% 30.16 in 10.0 mi ESE 5.8 mph - N/A   Clear
5:55 AM 30.2 °F 24.3 °F 8.6 °F 40% 30.16 in 10.0 mi ESE 5.8 mph - N/A   Clear
6:15 AM 32.0 °F 27.5 °F 6.8 °F 35% 30.16 in 10.0 mi SE 4.6 mph - N/A   Clear
6:35 AM 30.2 °F 24.3 °F 8.6 °F 40% 30.16 in 10.0 mi SE 5.8 mph - N/A   Clear
6:55 AM 30.2 °F 25.4 °F 8.6 °F 40% 30.16 in 10.0 mi ESE 4.6 mph - N/A   Clear
7:15 AM 30.2 °F 24.3 °F 6.8 °F 37% 30.16 in 10.0 mi SE 5.8 mph - N/A   Clear
7:35 AM 30.2 °F 23.4 °F 6.8 °F 37% 30.17 in 10.0 mi SE 6.9 mph - N/A   Clear
7:55 AM 32.0 °F 26.4 °F 8.6 °F 38% 30.17 in 10.0 mi ESE 5.8 mph - N/A   Clear
8:15 AM 32.0 °F 25.6 °F 8.6 °F 38% 30.16 in 10.0 mi SE 6.9 mph - N/A   Clear
8:35 AM 33.8 °F 29.6 °F 8.6 °F 35% 30.18 in 10.0 mi ESE 4.6 mph - N/A   Clear
8:55 AM 35.6 °F 30.7 °F 8.6 °F 33% 30.17 in 10.0 mi SE 5.8 mph - N/A   Clear
9:15 AM 37.4 °F - 8.6 °F 30% 30.16 in 10.0 mi Calm Calm - N/A   Clear
9:35 AM 39.2 °F - 8.6 °F 28% 30.16 in 10.0 mi Calm Calm - N/A   Clear
9:55 AM 41.0 °F - 8.6 °F 26% 30.16 in 10.0 mi Calm Calm - N/A   Clear
10:15 AM 42.8 °F - 8.6 °F 25% 30.16 in 10.0 mi Calm Calm - N/A   Clear
10:35 AM 44.6 °F - 6.8 °F 21% 30.16 in 10.0 mi Calm Calm - N/A   Clear
10:55 AM 44.6 °F 42.2 °F 8.6 °F 23% 30.14 in 10.0 mi South 4.6 mph - N/A   Clear
11:15 AM 48.2 °F - 3.2 °F 16% 30.14 in 10.0 mi WSW 8.1 mph - N/A   Clear
11:35 AM 48.2 °F - 3.2 °F 16% 30.12 in 10.0 mi West 10.4 mph 18.4 mph N/A   Clear
11:55 AM 50.0 °F - 1.4 °F 14% 30.11 in 10.0 mi SW 10.4 mph - N/A   Clear
12:15 PM 48.2 °F - 3.2 °F 16% 30.10 in 10.0 mi West 10.4 mph 19.6 mph N/A   Clear
12:35 PM 48.2 °F - 3.2 °F 16% 30.09 in 10.0 mi WSW 11.5 mph 17.3 mph N/A   Clear
12:55 PM 48.2 °F - 3.2 °F 16% 30.09 in 10.0 mi West 15.0 mph 23.0 mph N/A   Clear
1:15 PM 48.2 °F - 5.0 °F 17% 30.09 in 10.0 mi West 9.2 mph - N/A   Clear
1:35 PM 48.2 °F - 6.8 °F 19% 30.08 in 10.0 mi West 9.2 mph - N/A   Clear
1:55 PM 46.4 °F 42.4 °F 8.6 °F 22% 30.08 in 10.0 mi West 8.1 mph 16.1 mph N/A   Clear
2:15 PM 48.2 °F - 8.6 °F 20% 30.07 in 10.0 mi WSW 12.7 mph - N/A   Clear
2:35 PM 48.2 °F - 10.4 °F 22% 30.07 in 10.0 mi West 8.1 mph - N/A   Clear
2:55 PM 46.4 °F 42.4 °F 8.6 °F 22% 30.07 in 10.0 mi West 8.1 mph - N/A   Clear
3:15 PM 46.4 °F 41.9 °F 8.6 °F 22% 30.07 in 10.0 mi SW 9.2 mph 17.3 mph N/A   Clear
3:35 PM 46.4 °F 41.1 °F 8.6 °F 22% 30.07 in 10.0 mi SW 11.5 mph 16.1 mph N/A   Clear
3:55 PM 46.4 °F 42.9 °F 8.6 °F 22% 30.07 in 10.0 mi WSW 6.9 mph - N/A   Clear
4:15 PM 44.6 °F 40.7 °F 6.8 °F 21% 30.07 in 10.0 mi WSW 6.9 mph - N/A   Clear
4:35 PM 44.6 °F 41.4 °F 6.8 °F 21% 30.07 in 10.0 mi WSW 5.8 mph - N/A   Clear
4:55 PM 42.8 °F 38.6 °F 8.6 °F 25% 30.07 in 10.0 mi WSW 6.9 mph - N/A   Clear
5:15 PM 41.0 °F 37.1 °F 8.6 °F 26% 30.07 in 10.0 mi West 5.8 mph - N/A   Clear
5:35 PM 41.0 °F - 8.6 °F 26% 30.08 in 10.0 mi Calm Calm - N/A   Clear
5:55 PM 41.0 °F 39.0 °F 8.6 °F 26% 30.08 in 10.0 mi WSW 3.5 mph - N/A   Clear
6:15 PM 39.2 °F - 8.6 °F 28% 30.09 in 10.0 mi Calm Calm - N/A   Clear
6:35 PM 37.4 °F - 8.6 °F 30% 30.09 in 10.0 mi Calm Calm - N/A   Clear
6:55 PM 37.4 °F - 8.6 °F 30% 30.09 in 10.0 mi Calm Calm - N/A   Clear
7:15 PM 33.8 °F 27.7 °F 10.4 °F 38% 30.10 in 10.0 mi ESE 6.9 mph - N/A   Clear
7:35 PM 33.8 °F 27.7 °F 10.4 °F 38% 30.10 in 10.0 mi ESE 6.9 mph - N/A   Clear
7:55 PM 33.8 °F 28.6 °F 10.4 °F 38% 30.10 in 10.0 mi ESE 5.8 mph - N/A   Clear
8:15 PM 33.8 °F 28.6 °F 10.4 °F 38% 30.11 in 10.0 mi ESE 5.8 mph - N/A   Clear
8:35 PM 32.0 °F 24.8 °F 10.4 °F 41% 30.11 in 10.0 mi ESE 8.1 mph - N/A   Clear
8:55 PM 32.0 °F 27.5 °F 10.4 °F 41% 30.12 in 10.0 mi ESE 4.6 mph - N/A   Clear
9:15 PM 32.0 °F 26.4 °F 10.4 °F 41% 30.12 in 10.0 mi SE 5.8 mph - N/A   Clear
9:35 PM 32.0 °F 26.4 °F 10.4 °F 41% 30.12 in 10.0 mi SE 5.8 mph - N/A   Clear
9:55 PM 32.0 °F 27.5 °F 10.4 °F 41% 30.12 in 10.0 mi ESE 4.6 mph - N/A   Clear
10:15 PM 30.2 °F 24.3 °F 12.2 °F 47% 30.12 in 10.0 mi ESE 5.8 mph - N/A   Clear
10:35 PM 32.0 °F 27.5 °F 12.2 °F 44% 30.12 in 10.0 mi ESE 4.6 mph - N/A   Clear
10:55 PM 30.2 °F 24.3 °F 12.2 °F 47% 30.12 in 10.0 mi ESE 5.8 mph - N/A   Clear
11:15 PM 32.0 °F 25.6 °F 12.2 °F 44% 30.12 in 10.0 mi SE 6.9 mph - N/A   Scattered Clouds
11:35 PM 30.2 °F 25.4 °F 12.2 °F 47% 30.12 in 10.0 mi SE 4.6 mph - N/A   Scattered Clouds
11:55 PM 32.0 °F 27.5 °F 12.2 °F 44% 30.12 in 10.0 mi SE 4.6 mph - N/A   Scattered Clouds